History for Miami, FL

Monday, December 10, 2012 — View Current Conditions

Jump to Data:

Date:
Airport Code:
Recently Viewed Airport Codes: KMIA
Daily Summary
  Actual Average Record
Temperature
Mean Temperature 78°F 71°F  
Max Temperature 82°F 79°F 89°F (2009)
Min Temperature 73°F 64°F 37°F (1917)
Degree Days
Heating Degree Days 0 1  
Month to date heating degree days 0 6  
Since 1 July heating degree days 1 9  
Cooling Degree Days 13 7  
Month to date cooling degree days 104 75  
Year to date cooling degree days 4544 4447  
Growing Degree Days 28 (Base 50)    
Moisture
Dew Point 73°F    
Average Humidity 87    
Maximum Humidity 100    
Minimum Humidity 74    
Precipitation
Precipitation 0.00 in 0.07 in 5.06 in (2000)
Month to date precipitation 0.24 0.70  
Year to date precipitation 86.67 60.56  
Snow
Snow 0.00 in in in ()
Month to date snowfall 0.0  
Since 1 July snowfall 0.0  
Snow Depth 0.00 in    
Sea Level Pressure
Sea Level Pressure 29.99 in    
Wind
Wind Speed 7 mph (SSE)    
Max Wind Speed 16 mph    
Max Gust Speed 25 mph    
Visibility 9 miles    
Events      
T = Trace of Precipitation, MM = Missing Value Source: NWS Daily Summary

Show full METARS

(help) - Comma Delimited File

Hourly Observations

Time(EST) Temperature Dew Point Humidity Sea Level Pressure Visibility Wind Direction Wind Speed Gust Speed Precipitation Events Conditions
12:53 AM 75.0°F 73.0°F 94% 30.03 in 10.0 miles Calm Calm - N/A   Partly Cloudy
1:53 AM 75.0°F 73.0°F 94% 30.02 in 6.0 miles Calm Calm - N/A   Scattered Clouds
2:53 AM 73.9°F 73.0°F 97% 30.01 in 6.0 miles Calm Calm - N/A   Scattered Clouds
3:53 AM 73.0°F 72.0°F 96% 29.99 in 6.0 miles Calm Calm - N/A   Scattered Clouds
4:53 AM 75.0°F 73.0°F 94% 29.99 in 6.0 miles SSE 3.5 mph - N/A   Scattered Clouds
5:53 AM 75.0°F 73.0°F 94% 29.99 in 6.0 miles SE 4.6 mph - N/A   Scattered Clouds
6:53 AM 75.9°F 73.0°F 91% 30.00 in 6.0 miles SSE 4.6 mph - N/A   Scattered Clouds
7:53 AM 77.0°F 73.9°F 90% 30.03 in 7.0 miles SSE 8.1 mph - N/A   Scattered Clouds
8:53 AM 79.0°F 73.9°F 84% 30.03 in 10.0 miles SSE 11.5 mph - N/A   Scattered Clouds
9:13 AM 80.6°F 73.4°F 79% 30.03 in 10.0 miles SSE 11.5 mph 21.9 mph N/A   Mostly Cloudy
9:53 AM 81.0°F 73.9°F 79% 30.03 in 10.0 miles SE 12.7 mph 17.3 mph N/A   Mostly Cloudy
10:36 AM 80.6°F 73.4°F 79% 30.02 in 10.0 miles SE 12.7 mph 23.0 mph N/A   Mostly Cloudy
10:53 AM 81.0°F 73.0°F 77% 30.02 in 10.0 miles SSE 12.7 mph 25.3 mph N/A   Mostly Cloudy
11:53 AM 81.0°F 73.0°F 77% 30.00 in 10.0 miles SSE 13.8 mph 18.4 mph N/A   Mostly Cloudy
12:53 PM 81.0°F 73.0°F 77% 29.97 in 10.0 miles SSE 11.5 mph 19.6 mph N/A   Mostly Cloudy
1:53 PM 82.0°F 73.0°F 74% 29.95 in 10.0 miles SSE 11.5 mph 19.6 mph N/A   Mostly Cloudy
2:37 PM 80.6°F 71.6°F 74% 29.95 in 10.0 miles South 13.8 mph 25.3 mph N/A   Mostly Cloudy
2:53 PM 81.0°F 73.0°F 77% 29.95 in 10.0 miles SSE 11.5 mph 20.7 mph N/A   Mostly Cloudy
3:53 PM 81.0°F 73.0°F 77% 29.94 in 10.0 miles SSE 12.7 mph 20.7 mph N/A   Mostly Cloudy
4:53 PM 80.1°F 73.0°F 79% 29.94 in 10.0 miles SSE 11.5 mph 18.4 mph N/A   Scattered Clouds
5:53 PM 79.0°F 73.9°F 84% 29.95 in 10.0 miles SSE 8.1 mph - N/A   Mostly Cloudy
6:53 PM 78.1°F 73.9°F 87% 29.96 in 10.0 miles Variable 6.9 mph - N/A   Mostly Cloudy
7:53 PM 78.1°F 73.9°F 87% 29.97 in 10.0 miles SSE 6.9 mph - N/A   Overcast
8:53 PM 78.1°F 73.9°F 87% 29.99 in 10.0 miles SSE 4.6 mph - N/A   Overcast
9:53 PM 78.1°F 73.9°F 87% 29.99 in 10.0 miles SSE 6.9 mph - N/A   Overcast
10:53 PM 77.0°F 73.9°F 90% 29.98 in 10.0 miles SSE 8.1 mph - N/A   Mostly Cloudy
11:53 PM 77.0°F 73.9°F 90% 29.98 in 9.0 miles SSE 6.9 mph - N/A   Mostly Cloudy